KJ7HSW Weather Reports


Display with metric or nautical units.
time (UTC)temp
F
wind
direction
speed
MPH
gust
MPH
rain 1hr
in
rain 24hr
in
rain mn
in
humidity
%
barometer
mb
20260506155146 55 250 3.0 3.0 0.00 0.00 0.00 89 1019.0
20260506153248 54 237 2.0 3.0 0.00 0.00 0.00 89 1018.8
20260506152745 54 240 3.0 4.0 0.00 0.00 0.00 89 1018.7
20260506152242 54 241 3.0 4.0 0.00 0.00 0.00 89 1018.6
20260506151741 54 222 3.0 4.0 0.00 0.00 0.00 89 1018.5
20260506151237 54 189 2.0 3.0 0.00 0.00 0.00 90 1018.5
20260506150734 53 200 3.0 4.0 0.00 0.00 0.00 91 1018.3
20260506150231 53 200 2.0 3.0 0.00 0.00 0.00 91 1018.5
20260506145728 53 172 1.0 2.0 0.00 0.00 0.00 91 1018.5
20260506145225 53 223 3.0 4.0 0.00 0.00 0.00 91 1018.4
20260506144722 53 179 2.0 3.0 0.00 0.00 0.00 91 1018.2
20260506144219 53 183 3.0 3.0 0.00 0.00 0.00 92 1018.4
20260506143716 53 199 2.0 4.0 0.00 0.00 0.00 91 1018.3
20260506143214 52 212 3.0 3.0 0.00 0.00 0.00 92 1018.2
20260506142712 52 239 2.0 3.0 0.00 0.00 0.00 92 1018.6
20260506142210 52 191 2.0 5.0 0.00 0.00 0.00 93 1018.4
20260506141708 52 217 2.0 3.0 0.00 0.00 0.00 93 1018.4
20260506141206 52 224 2.0 3.0 0.00 0.00 0.00 94 1018.4
20260506140703 51 210 2.0 3.0 0.00 0.00 0.00 94 1018.5
20260506140200 51 199 2.0 3.0 0.00 0.00 0.00 94 1018.4
20260506135657 51 194 3.0 4.0 0.00 0.00 0.00 95 1018.2
20260506135153 51 219 3.0 4.0 0.00 0.00 0.00 95 1018.2
20260506134650 51 212 3.0 5.0 0.00 0.00 0.00 95 1018.1
20260506134146 51 186 3.0 5.0 0.00 0.00 0.00 95 1018.1
20260506133643 51 149 4.0 4.0 0.00 0.00 0.00 95 1018.1
20260506133140 50 189 3.0 4.0 0.00 0.00 0.00 95 1017.9
20260506132637 50 191 3.0 4.0 0.00 0.00 0.00 96 1018.1
20260506132134 50 204 3.0 3.0 0.00 0.00 0.00 96 1018.0
20260506131632 50 175 3.0 4.0 0.00 0.00 0.00 96 1018.0
20260506131128 50 190 1.0 4.0 0.00 0.00 0.00 96 1018.1
20260506130625 49 195 3.0 4.0 0.00 0.00 0.00 96 1018.1
20260506130122 49 186 3.0 5.0 0.00 0.00 0.00 96 1017.9
20260506125620 49 204 4.0 4.0 0.00 0.00 0.00 96 1017.9
20260506125117 49 215 3.0 4.0 0.00 0.00 0.00 96 1018.0
20260506124615 49 224 4.0 4.0 0.00 0.00 0.00 96 1017.9
20260506124113 49 216 4.0 5.0 0.00 0.00 0.00 96 1017.9
20260506123611 49 187 1.0 3.0 0.00 0.00 0.00 97 1018.0
20260506123109 49 200 3.0 3.0 0.00 0.00 0.00 96 1017.9
20260506122605 49 233 2.0 3.0 0.00 0.00 0.00 96 1017.6
20260506122103 49 220 3.0 3.0 0.00 0.00 0.00 96 1017.9
20260506121601 49 220 4.0 4.0 0.00 0.00 0.00 96 1017.9
20260506121057 49 225 3.0 5.0 0.00 0.00 0.00 96 1017.8
20260506120555 50 206 3.0 3.0 0.00 0.00 0.00 96 1017.7
20260506120051 49 202 2.0 3.0 0.00 0.00 0.00 96 1017.7
20260506115549 49 195 3.0 3.0 0.00 0.00 0.00 96 1017.7
20260506115048 49 176 3.0 3.0 0.00 0.00 0.00 96 1017.6
20260506114545 49 217 3.0 4.0 0.00 0.00 0.00 96 1017.7
20260506114043 49 218 3.0 4.0 0.00 0.00 0.00 96 1017.9
20260506113541 49 219 3.0 3.0 0.00 0.00 0.00 96 1017.6
20260506113038 49 194 3.0 3.0 0.00 0.00 0.00 96 1017.5
20260506112534 50 222 3.0 3.0 0.00 0.00 0.00 96 1017.4
20260506112032 50 223 3.0 3.0 0.00 0.00 0.00 96 1017.5
20260506111530 50 249 3.0 3.0 0.00 0.00 0.00 96 1017.4
20260506111027 50 233 3.0 4.0 0.00 0.00 0.00 96 1017.4
20260506110524 50 232 3.0 5.0 0.00 0.00 0.00 96 1017.4
20260506110021 50 246 2.0 3.0 0.00 0.00 0.00 95 1017.2
20260506105517 50 232 3.0 3.0 0.00 0.00 0.00 95 1017.2
20260506105015 50 213 3.0 3.0 0.00 0.00 0.00 95 1016.9
20260506104513 50 219 5.0 5.0 0.00 0.00 0.00 95 1017.0
20260506104010 51 234 1.0 4.0 0.00 0.00 0.00 94 1016.9
20260506103507 51 229 2.0 3.0 0.00 0.00 0.00 94 1016.8
20260506103004 51 189 1.0 3.0 0.00 0.00 0.00 94 1016.7
20260506102502 51 216 1.0 4.0 0.00 0.00 0.00 94 1016.7
20260506101959 51 146 4.0 5.0 0.00 0.00 0.00 95 1016.6
20260506101455 51 164 3.0 6.0 0.00 0.00 0.00 95 1016.6
20260506100953 51 184 3.0 3.0 0.00 0.00 0.00 95 1016.6
20260506100451 51 190 2.0 3.0 0.00 0.00 0.00 95 1016.5
20260506095949 51 170 2.0 3.0 0.00 0.00 0.00 95 1016.7
20260506095447 51 196 3.0 3.0 0.00 0.00 0.00 95 1016.6
20260506094943 51 201 2.0 3.0 0.00 0.00 0.00 94 1016.5
20260506094442 51 183 2.0 3.0 0.00 0.00 0.00 94 1016.6
20260506093939 52 205 2.0 3.0 0.00 0.00 0.00 94 1016.6
20260506093437 52 182 3.0 3.0 0.00 0.00 0.00 94 1016.6
20260506092934 51 177 3.0 4.0 0.00 0.00 0.00 95 1016.6
20260506092432 51 176 2.0 3.0 0.00 0.00 0.00 94 1016.5
20260506091928 51 186 3.0 4.0 0.00 0.00 0.00 94 1016.4
20260506091427 51 193 4.0 5.0 0.00 0.00 0.00 95 1016.5
20260506090923 51 197 3.0 3.0 0.00 0.00 0.00 94 1016.6
20260506090421 51 211 3.0 3.0 0.00 0.00 0.00 94 1016.5
20260506085918 52 217 3.0 4.0 0.00 0.00 0.00 94 1016.5
20260506085414 52 234 2.0 3.0 0.00 0.00 0.00 94 1016.4
20260506084911 52 194 1.0 3.0 0.00 0.00 0.00 94 1016.3
20260506084408 52 201 2.0 3.0 0.00 0.00 0.00 94 1016.4
20260506083904 52 214 3.0 3.0 0.00 0.00 0.00 94 1016.4
20260506083401 52 216 3.0 4.0 0.00 0.00 0.00 93 1016.2
20260506082858 52 188 3.0 3.0 0.00 0.00 0.00 93 1016.3
20260506082355 52 212 3.0 5.0 0.00 0.00 0.00 92 1016.3
20260506081851 53 213 3.0 5.0 0.00 0.00 0.00 92 1016.2
20260506081350 53 214 3.0 3.0 0.00 0.00 0.00 92 1016.2
20260506080847 53 210 3.0 4.0 0.00 0.00 0.00 92 1016.0
20260506080343 53 198 3.0 4.0 0.00 0.00 0.00 92 1016.2
20260506073328 54 198 3.0 4.0 0.00 0.00 0.00 90 1015.9
20260506072824 55 218 4.0 5.0 0.00 0.00 0.00 89 1015.8
20260506072322 55 226 3.0 5.0 0.00 0.00 0.00 89 1015.7
20260506071819 55 211 4.0 4.0 0.00 0.00 0.00 89 1015.8
20260506071317 55 206 3.0 4.0 0.00 0.00 0.00 88 1015.7
20260506070814 55 188 2.0 5.0 0.00 0.00 0.00 88 1015.6
20260506070311 56 167 3.0 3.0 0.00 0.00 0.00 87 1015.7
20260506062248 56 185 3.0 3.0 0.00 0.00 0.00 87 1015.4
20260506061744 56 209 2.0 3.0 0.00 0.00 0.00 87 1015.4
20260506061241 56 194 3.0 3.0 0.00 0.00 0.00 86 1015.4
20260506060740 56 212 3.0 4.0 0.00 0.00 0.00 87 1015.2
20260506060237 56 201 3.0 3.0 0.00 0.00 0.00 87 1015.3
20260506051209 56 214 2.0 2.0 0.00 0.00 0.00 87 1015.0
20260506050707 56 295 2.0 2.0 0.00 0.00 0.00 87 1014.8
20260506050204 56 220 3.0 3.0 0.00 0.00 0.00 86 1014.9
20260506044655 57 250 3.0 3.0 0.00 0.00 0.00 85 1014.8
20260506044151 57 214 1.0 3.0 0.00 0.00 0.00 84 1014.8
20260506043649 58 297 1.0 2.0 0.00 0.00 0.00 84 1014.6
20260506043147 58 269 1.0 2.0 0.00 0.00 0.00 84 1014.6
20260506042646 58 198 1.0 1.0 0.00 0.00 0.00 83 1014.7
20260506042143 58 208 1.0 3.0 0.00 0.00 0.00 82 1014.6
20260506041641 59 323 2.0 3.0 0.00 0.00 0.00 81 1014.4
20260506041138 59 172 0.0 2.0 0.00 0.00 0.00 81 1014.4
20260506040635 59 212 3.0 4.0 0.00 0.00 0.00 81 1014.2
20260506040132 59 253 2.0 4.0 0.00 0.00 0.00 80 1014.2
20260506035629 60 292 3.0 3.0 0.00 0.00 0.00 79 1014.1
20260506035126 60 252 2.0 3.0 0.00 0.00 0.00 80 1014.1
20260506034623 60 246 2.0 4.0 0.00 0.00 0.00 79 1014.3
20260506034120 60 226 3.0 5.0 0.00 0.00 0.00 80 1014.1
20260506033617 60 262 2.0 3.0 0.00 0.00 0.00 80 1014.0
20260506033114 60 289 2.0 3.0 0.00 0.00 0.00 79 1013.8
20260506032612 61 219 3.0 4.0 0.00 0.00 0.00 78 1013.9
20260506032108 61 240 2.0 3.0 0.00 0.00 0.00 78 1013.7
20260506031606 61 249 3.0 4.0 0.00 0.00 0.00 77 1013.9
20260506031102 61 280 2.0 3.0 0.00 0.00 0.00 78 1013.6
20260506030601 62 261 3.0 4.0 0.00 0.00 0.00 77 1013.5
20260506030057 62 304 3.0 3.0 0.00 0.00 0.00 77 1013.6
20260506025554 62 277 2.0 4.0 0.00 0.00 0.00 76 1013.5
20260506025050 62 249 3.0 4.0 0.00 0.00 0.00 76 1013.7
20260506024548 62 310 2.0 3.0 0.00 0.00 0.00 76 1013.7
20260506024044 63 169 0.0 3.0 0.00 0.00 0.00 75 1013.5
20260506023540 63 244 3.0 4.0 0.00 0.00 0.00 75 1013.7
20260506023038 63 233 2.0 3.0 0.00 0.00 0.00 73 1013.5
20260506022535 64 263 3.0 4.0 0.00 0.00 0.00 74 1013.7
20260506022032 64 250 3.0 3.0 0.00 0.00 0.00 73 1013.6
20260506021530 65 260 3.0 3.0 0.00 0.00 0.00 73 1013.6
20260506021027 65 228 2.0 7.0 0.00 0.00 0.00 71 1013.4
20260506020525 66 243 4.0 4.0 0.00 0.00 0.00 70 1013.6
20260506020022 66 226 6.0 7.0 0.00 0.00 0.00 69 1013.5
20260506015519 66 271 3.0 6.0 0.00 0.00 0.00 70 1013.4
20260506015016 67 234 3.0 5.0 0.00 0.00 0.00 69 1013.5
20260506014514 67 252 3.0 4.0 0.00 0.00 0.00 69 1013.2
20260506014009 67 214 2.0 5.0 0.00 0.00 0.00 68 1013.4
20260506013508 67 278 2.0 4.0 0.00 0.00 0.00 67 1013.2
20260506013004 68 290 3.0 3.0 0.00 0.00 0.00 67 1013.2
20260506012500 68 248 2.0 4.0 0.00 0.00 0.00 67 1013.3
20260506011957 68 217 7.0 7.0 0.00 0.00 0.00 66 1013.2
20260506011454 68 254 3.0 4.0 0.00 0.00 0.00 67 1013.3
20260506010951 68 250 3.0 3.0 0.00 0.00 0.00 67 1013.1
20260506010450 68 289 3.0 6.0 0.00 0.00 0.00 66 1013.3
20260506005945 68 242 4.0 4.0 0.00 0.00 0.00 67 1013.3
20260506005444 68 346 0.0 4.0 0.00 0.00 0.00 66 1013.2
20260506004938 68 226 7.0 13.0 0.00 0.00 0.00 65 1013.4
20260506004437 68 79 2.0 7.0 0.00 0.00 0.00 65 1013.3
20260506003932 69 239 3.0 6.0 0.00 0.00 0.00 64 1013.2
20260506003429 69 189 2.0 4.0 0.00 0.00 0.00 64 1013.4
20260506002926 69 239 3.0 7.0 0.00 0.00 0.00 63 1013.4
20260506002422 69 331 3.0 10.0 0.00 0.00 0.00 63 1013.3
20260506001917 70 249 8.0 10.0 0.00 0.00 0.00 62 1013.3
20260506001415 71 239 3.0 6.0 0.00 0.00 0.00 63 1013.3
20260506000912 71 243 5.0 5.0 0.00 0.00 0.00 60 1013.3
20260506000409 71 264 3.0 9.0 0.00 0.00 0.00 61 1013.2
20260505235906 71 215 2.0 4.0 0.00 0.00 0.00 60 1013.4
20260505235404 72 319 1.0 4.0 0.00 0.00 0.00 58 1013.3
20260505234900 73 206 3.0 4.0 0.00 0.00 0.00 58 1013.3
20260505234358 73 268 3.0 7.0 0.00 0.00 0.00 57 1013.5
20260505233854 73 198 5.0 6.0 0.00 0.00 0.00 57 1013.4
20260505233353 73 259 3.0 6.0 0.00 0.00 0.00 58 1013.5
20260505232850 73 295 6.0 6.0 0.00 0.00 0.00 58 1013.6
20260505232348 74 269 4.0 4.0 0.00 0.00 0.00 56 1013.8
20260505231844 73 6 3.0 9.0 0.00 0.00 0.00 57 1013.8
20260505231341 74 228 8.0 9.0 0.00 0.00 0.00 55 1013.7
20260505230840 74 293 2.0 6.0 0.00 0.00 0.00 56 1013.7
20260505230337 73 249 4.0 9.0 0.00 0.00 0.00 56 1013.7
20260505225833 75 259 3.0 5.0 0.00 0.00 0.00 54 1013.9
20260505225331 75 237 5.0 6.0 0.00 0.00 0.00 54 1014.0
20260505224825 75 208 2.0 6.0 0.00 0.00 0.00 53 1013.9
20260505224324 75 230 2.0 6.0 0.00 0.00 0.00 54 1014.0
20260505223820 73 236 4.0 7.0 0.00 0.00 0.00 56 1013.8
20260505223317 73 293 5.0 5.0 0.00 0.00 0.00 57 1013.9
20260505222813 73 300 2.0 5.0 0.00 0.00 0.00 55 1014.0
20260505222309 73 225 5.0 9.0 0.00 0.00 0.00 54 1014.0
20260505221807 72 322 3.0 5.0 0.00 0.00 0.00 55 1013.9
20260505221303 72 265 5.0 6.0 0.00 0.00 0.00 56 1014.0
20260505220800 73 299 4.0 7.0 0.00 0.00 0.00 56 1014.2
20260505220257 72 244 7.0 7.0 0.00 0.00 0.00 56 1014.2
20260505215755 72 248 4.0 6.0 0.00 0.00 0.00 60 1014.2
20260505215253 71 285 4.0 10.0 0.00 0.00 0.00 57 1014.1
20260505214750 72 240 7.0 8.0 0.00 0.00 0.00 57 1014.1
20260505214248 71 247 3.0 6.0 0.00 0.00 0.00 60 1014.3
20260505213745 71 211 7.0 10.0 0.00 0.00 0.00 60 1014.3
20260505213243 71 249 4.0 9.0 0.00 0.00 0.00 59 1014.2
20260505212738 71 153 1.0 11.0 0.00 0.00 0.00 58 1014.5
20260505212235 71 268 3.0 8.0 0.00 0.00 0.00 61 1014.3
20260505211732 71 267 5.0 10.0 0.00 0.00 0.00 62 1014.1
20260505211230 71 95 2.0 6.0 0.00 0.00 0.00 61 1014.3
20260505210726 70 321 3.0 7.0 0.00 0.00 0.00 62 1014.3
20260505210223 71 200 4.0 8.0 0.00 0.00 0.00 63 1014.3
20260505205720 70 117 0.0 4.0 0.00 0.00 0.00 62 1014.4
20260505205218 70 176 4.0 5.0 0.00 0.00 0.00 63 1014.1
20260505204715 70 241 5.0 14.0 0.00 0.00 0.00 62 1014.2
20260505204213 70 331 4.0 5.0 0.00 0.00 0.00 64 1014.4
20260505203710 69 241 4.0 13.0 0.00 0.00 0.00 64 1014.4
20260505203207 69 242 2.0 9.0 0.00 0.00 0.00 63 1014.4
20260505202702 69 291 3.0 9.0 0.00 0.00 0.00 62 1014.5
20260505202158 70 30 3.0 6.0 0.00 0.00 0.00 62 1014.3
20260505201655 70 205 2.0 4.0 0.00 0.00 0.00 63 1014.5
20260505201153 69 225 3.0 7.0 0.00 0.00 0.00 63 1014.4
20260505200651 69 185 1.0 5.0 0.00 0.00 0.00 63 1014.5
20260505200147 70 267 6.0 11.0 0.00 0.00 0.00 61 1014.5
20260505195643 70 253 4.0 9.0 0.00 0.00 0.00 62 1014.5
20260505195141 70 334 4.0 6.0 0.00 0.00 0.00 62 1014.4
20260505194638 70 265 5.0 6.0 0.00 0.00 0.00 62 1014.5
20260505194134 69 231 4.0 5.0 0.00 0.00 0.00 62 1014.6
20260505193630 69 240 6.0 8.0 0.00 0.00 0.00 63 1014.6
20260505193127 69 141 2.0 5.0 0.00 0.00 0.00 63 1014.5
20260505192626 69 107 3.0 10.0 0.00 0.00 0.00 63 1014.6
20260505192123 70 200 4.0 5.0 0.00 0.00 0.00 62 1014.5
20260505191622 69 276 3.0 8.0 0.00 0.00 0.00 63 1014.3
20260505191119 69 195 4.0 11.0 0.00 0.00 0.00 62 1014.6
20260505190615 69 268 2.0 5.0 0.00 0.00 0.00 61 1014.5
20260505190110 70 161 2.0 6.0 0.00 0.00 0.00 60 1014.5
20260505185607 69 234 1.0 12.0 0.00 0.00 0.00 62 1014.5
20260505185103 69 328 2.0 4.0 0.00 0.00 0.00 64 1014.5
20260505184600 69 202 1.0 9.0 0.00 0.00 0.00 62 1014.5
20260505184057 69 174 3.0 6.0 0.00 0.00 0.00 61 1014.5
20260505183553 68 114 2.0 5.0 0.00 0.00 0.00 63 1014.5
20260505183051 68 234 2.0 9.0 0.00 0.00 0.00 60 1014.6
20260505182547 69 75 1.0 6.0 0.00 0.00 0.00 59 1014.6
20260505182044 69 107 8.0 9.0 0.00 0.00 0.00 58 1014.5
20260505181541 69 228 6.0 7.0 0.00 0.00 0.00 58 1014.7
20260505181038 69 205 5.0 7.0 0.00 0.00 0.00 58 1014.6
20260505180533 69 218 4.0 7.0 0.00 0.00 0.00 57 1014.6
20260505180033 69 226 5.0 6.0 0.00 0.00 0.00 57 1014.7
20260505175532 68 241 5.0 8.0 0.00 0.00 0.00 57 1014.7
20260505175029 68 240 4.0 7.0 0.00 0.00 0.00 59 1014.6
20260505174526 68 229 5.0 6.0 0.00 0.00 0.00 57 1014.7
20260505174022 68 172 4.0 6.0 0.00 0.00 0.00 57 1014.7
20260505173519 68 252 3.0 4.0 0.00 0.00 0.00 57 1014.8
20260505173016 67 248 3.0 6.0 0.00 0.00 0.00 61 1014.7
20260505172514 66 194 4.0 7.0 0.00 0.00 0.00 60 1014.9
20260505172009 66 191 3.0 6.0 0.00 0.00 0.00 61 1014.6
20260505171505 65 200 4.0 8.0 0.00 0.00 0.00 62 1014.8
20260505171002 65 201 7.0 7.0 0.00 0.00 0.00 61 1014.8
20260505170459 66 204 3.0 6.0 0.00 0.00 0.00 62 1014.8
20260505165954 66 219 4.0 6.0 0.00 0.00 0.00 61 1014.9
20260505165450 65 214 4.0 7.0 0.00 0.00 0.00 64 1014.9
20260505164946 65 218 5.0 5.0 0.00 0.00 0.00 65 1015.0
20260505164443 64 191 4.0 5.0 0.00 0.00 0.00 64 1014.8
20260505163940 64 225 4.0 6.0 0.00 0.00 0.00 65 1014.8
20260505163439 64 207 4.0 7.0 0.00 0.00 0.00 67 1014.9
20260505162938 63 216 3.0 5.0 0.00 0.00 0.00 67 1014.9
20260505162433 62 229 5.0 6.0 0.00 0.00 0.00 69 1015.0
20260505161930 62 182 4.0 7.0 0.00 0.00 0.00 68 1014.9
20260505161427 62 171 4.0 7.0 0.00 0.00 0.00 70 1014.9
20260505160924 62 203 5.0 6.0 0.00 0.00 0.00 70 1014.8
20260505160422 61 201 4.0 7.0 0.00 0.00 0.00 70 1014.8